Find OneWeb SL0689

NORAD ID: 61597 Int'l Des: 2024-188 Owner: ONEWEBE Country: UK Constellation: oneweb operational
別名: ONEWEB-0689 spacetrack, celestrak
LEOCIRCULARPOLARONEWEB_TYPE

現在のビュー

3D地球を読み込み中...

About OneWeb SL0689

OneWeb SL0689 (NORAD 61597) is a oneweb constellation satellite launched Oct 20, 2024 by ONEWEBE of UK. It operates in LEO, CIRCULAR, POLAR, ONEWEB_TYPE orbit with a mass of 148.00 kg.

次回通過

Passes for default location (London). Set your location on the main map for personalized predictions.

高度履歴

Loading altitude history...

軌道要素

1 61597U 24188D 26265.69805246 -.00000183 00000-0 -55317-3 0 9990
2 61597 87.8977 1.6760 0001641 110.4503 249.6802 13.11419498 97235
Epoch: Sep 22, 2026 • Age: 17 hours

現在のステータス

高度 1230.3 km
遠地点 / 近地点 N/A
速度 7.25 km/s
衛星直下点 85.89°N, 3.08°E
打ち上げ日 Oct 20, 2024
運用期間 1.9 years
タイプ internet

技術仕様

分類 Payload
質量 148.00 kg
乾燥質量 140.00 kg
長さ 1.30 m
直径 1.00 m
スパン 5.00 m
形状 ? Trapezoid+2 pan
製造者 ONEWUS
バスタイプ ARROW
フェーズステータス In Orbit
所有者/国 ONEWEBE/UK

Most Searched